Hourly Weather Roundup
Issued by NWS Central Illinois

Home | Current Version | Previous Version | Text Only | Print | Product List | Glossary On
Versions: 1 2 3 4 5 6 7 8 9 10 11 12 13 14 15 16 17 18 19 20 21 22 23 24 25 26 27 28 29 30 31 32 33 34 35 36 37 38 39 40 41 42 43 44 45 46 47 48 49 50
000
NZUS43 KILX 191210
HWRILX

AREA WEATHER ROUNDUP
NATIONAL WEATHER SERVICE, LINCOLN IL
600 AM CST SUN FEB 19 2017


CITY           SKY/WX    TMP DP  RH WIND       PRES   REMARKS
BLOOMINGTON    FOG       38  38 100 SW6       29.99R VSB 1/4 WCI  33
6HR MIN TEMP:  38; 6HR MAX TEMP:  45; 6HR PCP: TRACE;

CHAMPAIGN      FOG       48  46  93 W6        30.00R VSB 1/4
6HR MIN TEMP:  48; 6HR MAX TEMP:  50;

DECATUR        FOG       47  46  97 SW7       29.99R VSB 1/4
6HR MIN TEMP:  47; 6HR MAX TEMP:  50;

EFFINGHAM      CLOUDY    50  50 100 CALM      30.03R FOG
6HR MIN TEMP:  50; 6HR MAX TEMP:  52;

FLORA          CLOUDY    52  50  93 W5        30.02R FOG
6HR MIN TEMP:  52; 6HR MAX TEMP:  53;

GALESBURG      CLOUDY    31  29  94 CALM        N/A
6HR MIN TEMP:  29; 6HR MAX TEMP:  36;

JACKSONVILLE   FOG       34  34  99 CALM      29.98R VSB<1/4
6HR MIN TEMP:  33; 6HR MAX TEMP:  46;

LACON          CLOUDY    30  29  97 CALM      29.98R
6HR MIN TEMP:  30; 6HR MAX TEMP:  37;

LAWRENCEVILLE  CLOUDY    49  48  97 CALM      30.03R FOG
6HR MIN TEMP:  46; 6HR MAX TEMP:  49;

LITCHFIELD     FOG       45  45 100 S6        30.00R VSB 1/4
6HR MIN TEMP:  45; 6HR MAX TEMP:  48;

$$


CITY           SKY/WX    TMP DP  RH WIND       PRES   REMARKS
LINCOLN        FOG       42  42 100 CALM      29.99R VSB 1/4
6HR MIN TEMP:  40; 6HR MAX TEMP:  44;

MACOMB         CLOUDY    33  31  92 CALM      29.99R
6HR MIN TEMP:  31; 6HR MAX TEMP:  42;

MATTOON        CLOUDY    49  49 100 W6        29.99R FOG
6HR MIN TEMP:  49; 6HR MAX TEMP:  51;

MT CARMEL AP   CLOUDY    49  48  96 CALM      30.03R FOG
6HR MIN TEMP:  44; 6HR MAX TEMP:  49;

OLNEY-NOBLE AP CLOUDY    50  50 100 W3        30.02R FOG
PARIS          CLOUDY    49  48  97 W3        30.01S FOG
6HR MIN TEMP:  49; 6HR MAX TEMP:  50;

PEORIA         CLEAR     38  36  92 CALM      29.98R
6HR MIN TEMP:  36; 6HR MAX TEMP:  43;

PONTIAC        FOG       32  32  99 CALM      30.00R VSB 1/4
6HR MIN TEMP:  32; 6HR MAX TEMP:  41;

RANTOUL        FOG       48  48  99 SW5       29.99R VSB 1/2
6HR MIN TEMP:  47; 6HR MAX TEMP:  49;

SPRINGFIELD    FOG       41  40  96 S3        29.99R VSB 1/4
6HR MIN TEMP:  41; 6HR MAX TEMP:  47;

TAYLORVILLE    FOG       46  46 100 CALM      30.00R VSB 1/4
6HR MIN TEMP:  46; 6HR MAX TEMP:  49;

$$

...REGIONAL REPORTS...


CITY           SKY/WX    TMP DP  RH WIND       PRES   REMARKS
CHICAGO O`HARE CLEAR     39  34  82 W6        29.97R WCI  35
KANKAKEE       CLEAR     32  31  97 CALM      29.99R
MOLINE         CLOUDY    30  25  81 CALM      29.97R
MOUNT STERLING FOG       35  35  99 CALM      29.96R VSB 1/2
MOUNT VERNON   CLOUDY    51  50  96 CALM      30.02R FOG
PITTSFIELD       N/A     38  37  96 CALM      29.98R FOG
QUINCY         CLEAR     45  43  93 S5        29.96R
ROCKFORD       CLEAR     31  28  89 CALM      30.00R
$$


CITY           SKY/WX    TMP DP  RH WIND       PRES   REMARKS
BURLINGTON     CLOUDY    37  31  78 CALM      29.96R
CEDAR RAPIDS   CLOUDY    29  29 100 S3        29.95R
DES MOINES     CLEAR     41  33  73 SE7       29.94R
KIRKSVILLE     CLEAR     35  32  88 SW6       29.97R WCI  30
OTTUMWA        CLOUDY    42  35  76 E7        29.94R
ST LOUIS       CLEAR     43  41  93 CALM      30.00R
$$


CITY           SKY/WX    TMP DP  RH WIND       PRES   REMARKS
TERRE HAUTE    CLOUDY    51  46  83 W3        30.01R
EVANSVILLE     CLOUDY    51  48  89 CALM      30.03R FOG
INDIANAPOLIS   CLOUDY    48  46  93 W9        30.01R
LAFAYETTE      CLOUDY    46  46 100 W3        30.00R FOG
MADISON        PTCLDY    29  27  92 CALM      29.97R
MILWAUKEE      CLEAR     44  30  57 NW8       29.96R
$$





USA.gov is the U.S. government's official web portal to all federal, state and local government web resources and services.